Temp_Advection
nan nan nan nan nan nan nan nan nan nan nan nan nan nan nan nan nan nan nan nan nan nan nan nan nan nan nan nan nan nan nan nan nan nan nan nan nan nan nan nan nan nan nan
nan 1 1 1 0 0 0 -0 0 0 0 0 0 0 0 0 0 0 0 0 0 0 0 0 -0 0 0 0 0 0 0 0 0 0 0 -0 -0 -0 -0 -0 -0 -0 nan
nan 0 1 1 0 1 -0 -0 -0 -0 0 -0 0 0 0 0 0 0 0 0 0 0 0 0 0 0 0 0 -0 -0 -0 0 0 0 0 0 0 -0 -0 -0 -0 -0 nan
nan -0 0 0 0 -0 -1 -0 -0 -0 -0 -0 0 0 0 0 0 0 0 0 0 0 0 0 -0 0 0 0 -0 -0 -0 0 0 0 0 0 0 0 -0 -0 -0 -0 nan
nan 0 0 -0 -0 -0 -0 -0 -0 -0 -0 -0 0 0 0 0 0 0 0 0 0 0 0 0 0 0 0 -0 -0 -0 0 0 0 0 0 0 0 0 0 -0 -0 -0 nan
nan 0 -0 0 0 0 -1 -1 -1 -0 -0 0 0 0 0 0 0 0 0 0 0 0 0 -0 -0 0 0 -0 -0 0 0 0 0 0 0 0 0 0 0 -0 -0 -0 nan
nan 0 -0 0 -0 -1 -0 0 -0 0 0 0 0 -0 0 0 -0 0 0 0 0 -0 -0 0 0 0 -0 -0 -0 0 0 0 0 0 0 0 0 0 0 0 -0 -0 nan
nan -0 -0 -0 -0 0 0 -0 1 0 -0 0 -0 0 0 -0 -0 0 0 0 0 -0 -0 -0 0 0 -0 -0 -0 0 0 0 0 0 0 0 0 0 0 0 0 -0 nan
nan 0 -0 -1 -0 -0 0 1 0 -0 0 0 0 0 -0 -0 -0 0 0 0 0 0 -0 -0 0 0 0 -0 0 0 0 0 0 1 0 0 0 0 0 0 0 0 nan
nan 0 0 -0 -1 0 1 -0 0 1 0 0 0 -0 -0 -0 0 0 0 -0 0 -0 0 0 0 0 -0 -0 0 0 -0 0 1 0 0 0 0 0 0 0 -0 -0 nan
nan 1 0 0 -0 0 1 0 1 0 -0 -0 -0 0 0 -0 -0 -0 0 0 1 0 0 0 0 0 0 0 -0 0 0 0 0 0 0 0 0 0 0 0 0 -0 nan
nan 0 0 1 0 -0 -0 -0 -0 -0 -0 -1 0 0 -1 0 1 0 0 0 0 -0 0 1 1 0 1 1 1 -0 -0 0 0 0 0 0 0 0 0 0 0 0 nan
nan 1 0 0 -0 -0 0 0 0 -0 -0 0 0 0 1 1 0 -0 0 1 0 -0 1 1 1 1 1 1 1 0 0 0 0 0 0 0 0 1 1 0 -0 -0 nan
nan -0 -0 0 0 0 0 0 0 -0 0 -0 0 1 0 0 -0 -0 0 1 1 1 1 1 1 1 1 1 0 -0 -0 0 0 0 0 0 1 1 1 0 0 -0 nan
nan 0 0 0 0 0 0 0 0 0 -0 0 1 0 -0 -1 -0 0 1 1 1 1 1 1 1 1 1 1 -0 -0 -0 0 0 0 0 1 1 1 0 0 -0 -0 nan
nan -0 -0 -0 -0 -0 -0 0 0 0 1 0 -1 -0 0 -0 -0 1 1 0 1 1 1 1 1 1 1 0 -1 -0 0 0 0 0 0 1 1 1 0 0 -0 -0 nan
nan -0 0 0 -0 -0 -0 0 -0 0 0 -0 0 1 0 -0 0 0 -0 0 0 1 1 0 -0 0 -0 -1 -0 0 1 1 0 0 0 0 1 1 0 -0 -0 -0 nan
nan -0 -0 -0 -0 -0 0 -0 -0 0 0 0 0 -0 -0 -0 -0 0 0 0 0 0 0 -1 -1 -0 0 -0 0 1 1 0 0 0 0 0 0 0 1 0 -0 -0 nan
nan -0 -0 -0 -0 0 0 -0 -0 -0 0 -0 -0 -0 0 -0 0 1 0 0 0 0 -0 -0 -0 0 0 0 1 1 0 1 1 1 0 0 0 1 0 0 -0 -0 nan
nan -0 -0 -0 -0 -0 -0 -0 0 0 0 -0 -0 0 -0 -0 -0 0 0 0 0 -0 0 0 1 1 1 0 0 0 1 1 1 0 0 0 1 0 0 0 0 0 nan
nan -1 -1 -0 -0 -0 -0 -0 0 0 0 -0 -0 -0 -0 -0 -0 -0 -0 0 0 0 1 1 1 1 -0 -0 0 1 2 1 0 -0 0 1 1 0 0 0 0 0 nan
nan -1 -1 -1 -1 -0 0 -0 -1 -1 0 1 -0 -1 -0 -0 -0 -0 -0 0 0 0 0 1 0 -1 -1 0 1 1 1 1 0 -0 0 1 1 0 0 0 0 0 nan
nan -1 -1 -1 -1 -1 -0 -0 -0 0 -0 -0 0 0 -1 -1 -0 -0 -0 -0 0 0 0 0 0 1 1 1 1 1 1 1 1 1 0 0 1 0 0 0 0 0 nan
nan -1 -1 -1 -2 -2 -1 -1 -0 1 1 -1 -1 -1 -1 -1 -0 -0 -0 -0 0 1 1 1 1 1 1 1 1 2 1 1 2 1 1 0 0 0 0 0 0 0 nan
nan -1 -1 -1 -1 -2 -1 -1 -1 -1 0 0 -1 -1 -1 -1 -0 -0 -0 -0 0 1 1 1 0 0 1 -0 1 1 1 1 1 1 1 0 0 0 0 0 0 -0 nan
nan nan nan nan nan nan nan nan nan nan nan nan nan nan nan nan nan nan nan nan nan nan nan nan nan nan nan nan nan nan nan nan nan nan nan nan nan nan nan nan nan nan nan
Wind_Speed
23 27 28 27 26 29 30 29 26 24 22 20 19 18 16 14 12 11 10 8 6 6 6 6 6 6 5 6 6 6 7 7 7 7 7 7 7 8 7 7 8 8 9
20 23 33 33 31 29 31 29 26 24 23 21 20 19 17 17 14 12 12 11 8 8 7 7 7 6 7 7 8 8 8 9 9 9 10 9 8 8 8 8 8 8 10
25 24 20 33 30 28 28 28 27 25 24 23 22 20 19 17 17 14 13 13 12 10 9 8 8 5 7 9 9 10 11 12 12 11 10 10 10 9 9 9 9 9 10
28 28 26 21 29 27 27 27 29 28 27 25 24 22 21 20 18 17 17 16 14 12 10 9 9 7 9 11 12 13 13 14 13 13 12 11 11 10 9 8 9 11 11
29 28 27 23 19 30 25 30 32 31 29 27 25 22 20 20 19 18 19 18 15 15 14 12 13 12 12 14 14 14 13 13 13 13 13 11 12 11 10 9 10 12 13
28 31 30 27 21 29 34 34 34 32 31 28 25 23 22 22 21 21 22 19 19 19 21 17 16 15 13 15 16 14 13 11 11 13 13 13 12 12 10 10 11 13 14
29 34 33 35 33 37 36 34 36 35 34 28 25 24 25 24 24 25 24 23 22 23 20 19 18 18 16 16 16 15 14 12 11 12 15 14 13 14 12 11 13 15 15
34 31 34 35 32 36 38 35 37 37 34 30 29 26 22 27 29 27 25 25 23 21 22 21 21 21 21 18 17 17 15 12 11 13 14 13 13 14 13 13 13 14 15
39 35 36 38 38 39 36 38 40 39 36 34 34 24 11 13 16 28 28 26 26 24 24 23 24 24 24 20 18 16 14 14 13 11 13 13 14 15 14 14 13 13 14
33 38 40 44 41 40 39 40 40 38 37 39 36 35 27 12 11 11 25 29 30 29 27 28 28 27 24 22 20 16 15 14 14 11 13 13 14 14 13 13 13 15 15
29 30 36 46 43 40 40 39 39 40 43 43 38 39 39 32 20 18 20 20 31 29 33 31 32 31 26 20 20 15 15 13 12 13 13 12 13 16 16 16 17 17 14
33 32 34 36 36 37 38 41 42 42 44 43 40 40 41 37 36 31 24 19 23 30 31 37 38 36 31 28 19 17 17 14 12 14 14 17 17 20 17 19 21 16 16
31 31 32 26 42 41 38 39 38 38 38 35 38 37 35 33 31 32 30 32 36 41 37 40 40 36 30 27 21 19 18 14 13 13 14 17 21 20 18 18 17 18 18
28 30 22 27 33 40 39 41 41 37 35 31 33 32 32 31 33 37 38 39 37 34 40 41 41 36 32 25 22 19 17 15 14 13 16 18 20 21 22 20 20 18 17
7 9 13 17 22 19 37 29 35 38 41 38 37 32 32 34 37 40 42 46 43 29 36 39 36 41 31 27 22 19 17 16 15 14 16 17 20 20 19 22 19 16 20
7 8 9 11 12 12 18 21 24 31 34 34 37 40 38 38 39 43 44 38 40 39 27 40 37 30 27 23 22 20 18 17 16 16 17 18 19 20 20 19 18 19 19
12 10 11 16 17 17 14 16 23 30 26 30 33 30 30 30 31 32 33 42 29 30 22 23 25 21 20 22 20 20 19 19 17 17 18 19 20 22 20 17 15 16 20
10 10 10 12 15 19 18 17 24 29 27 29 31 30 29 28 29 29 26 22 22 21 22 24 22 24 23 23 22 21 20 21 19 21 20 20 18 18 18 15 17 19 20
11 11 12 12 13 15 17 20 21 18 22 28 34 34 34 32 34 34 29 27 28 30 31 33 31 28 28 25 25 24 24 24 23 22 19 20 18 16 17 17 17 19 19
16 16 15 15 15 16 17 19 21 24 28 30 27 25 29 30 32 31 34 38 37 36 40 42 37 34 31 28 27 27 27 26 25 21 21 18 16 17 16 17 15 19 19
19 20 20 20 20 19 19 21 22 23 24 27 29 31 29 28 31 30 32 34 40 44 41 38 36 34 32 31 31 31 27 22 23 23 21 19 18 18 15 17 16 18 18
20 20 20 21 21 21 23 23 23 25 26 27 26 26 30 33 32 31 34 33 33 31 33 35 36 36 36 33 31 26 22 23 26 24 22 19 19 17 17 17 16 18 18
25 24 23 23 22 22 23 25 28 29 28 27 28 27 28 30 31 33 32 31 34 35 38 38 47 42 36 29 24 23 25 25 26 23 16 15 18 17 17 17 18 18 17
26 28 29 27 26 25 25 25 26 26 28 30 28 28 28 29 30 29 29 30 31 31 31 32 31 29 26 26 21 25 23 23 24 23 22 21 18 17 17 18 18 17 17
28 27 27 27 28 28 26 24 24 25 26 27 28 28 27 29 28 26 26 27 28 29 29 30 28 29 25 25 31 30 30 28 27 27 25 21 19 18 18 19 19 17 15
30 28 28 27 27 28 25 25 23 21 22 25 26 28 27 27 27 27 29 27 31 31 31 30 29 29 28 29 29 30 29 31 32 27 25 24 23 16 13 21 20 18 15
Wind_Direction
223 223 225 226 220 204 208 204 201 201 202 203 207 214 222 227 230 232 227 231 231 245 248 251 259 274 272 282 288 294 293 296 296 297 309 315 320 326 328 333 335 324 318
236 236 231 216 219 218 216 212 210 207 207 209 212 218 223 228 232 235 228 227 237 245 241 250 254 260 274 277 280 281 283 287 286 287 293 297 299 311 316 322 324 322 315
242 232 244 222 216 221 225 219 213 214 213 214 217 222 226 229 233 236 232 237 237 246 238 246 247 265 279 292 286 288 276 275 280 278 291 291 293 298 305 312 312 321 317
238 226 225 228 214 209 235 227 217 217 219 219 222 226 231 230 236 237 238 242 243 245 239 246 249 263 280 290 281 278 275 260 268 274 280 277 278 287 295 306 317 320 319
228 229 226 224 226 201 218 232 225 222 223 221 226 227 232 234 239 239 237 242 241 240 240 250 256 261 275 288 282 280 277 272 258 263 269 269 271 280 285 293 310 319 316
226 228 229 221 214 231 230 234 232 225 226 227 232 234 236 238 241 239 241 244 243 245 251 247 253 256 267 286 281 271 272 275 265 260 266 269 269 278 281 293 300 312 316
225 232 233 226 212 218 232 240 237 227 228 228 236 239 240 241 241 241 241 241 247 246 246 248 249 263 268 283 273 268 269 274 271 257 261 264 267 271 275 283 293 310 315
238 253 246 240 228 225 231 228 224 225 227 227 229 236 246 245 243 240 236 239 240 243 248 252 252 262 270 278 268 266 269 271 271 263 259 259 265 271 272 278 290 309 318
239 244 245 245 239 229 231 232 224 220 226 229 228 226 217 223 237 238 235 236 237 242 251 253 257 254 267 272 265 267 270 272 269 257 256 258 262 265 266 274 288 304 314
244 243 245 244 241 237 237 233 226 226 230 233 226 229 226 224 210 215 231 233 238 243 247 246 245 248 258 261 261 264 266 270 267 237 253 266 269 265 265 274 290 301 310
249 270 254 234 242 237 233 230 231 233 235 233 228 227 225 228 228 227 227 237 237 243 247 244 244 242 244 249 260 259 268 268 263 256 237 248 252 252 265 273 285 294 299
257 258 260 234 229 234 232 234 236 235 232 234 238 234 232 232 234 238 241 244 252 264 259 242 237 235 246 238 240 260 261 260 259 253 242 241 244 245 266 275 280 283 295
263 255 250 259 234 230 233 234 234 237 237 239 246 246 245 243 251 253 258 258 253 252 235 233 231 233 231 226 237 247 254 256 254 248 234 230 242 251 257 270 278 282 291
271 257 259 257 240 240 240 234 232 234 242 243 238 247 248 251 254 258 258 256 242 238 233 228 228 225 228 232 234 237 243 250 250 245 236 241 246 254 262 265 270 283 289
276 250 220 222 223 237 236 231 237 235 243 247 250 250 252 258 261 266 266 260 245 239 231 231 227 227 224 226 228 239 243 249 248 247 253 252 249 255 259 266 272 282 284
315 296 265 255 266 261 258 242 232 240 246 249 254 258 254 256 260 260 256 248 244 241 234 226 217 216 215 221 228 237 241 245 249 252 260 265 258 256 258 265 271 270 281
302 286 242 253 260 270 285 272 252 249 249 248 253 245 247 247 253 261 264 258 246 243 216 211 209 213 211 222 232 236 241 243 250 258 267 264 263 260 254 270 270 269 272
322 310 298 288 280 264 254 267 258 250 256 255 260 263 257 264 257 261 260 230 228 234 227 225 220 218 228 231 234 236 240 245 252 261 264 266 269 253 254 266 269 269 275
320 309 304 294 283 272 266 259 256 263 262 263 260 259 254 262 262 252 243 237 234 241 238 236 237 234 229 227 231 232 240 246 253 261 258 263 258 246 246 254 269 273 276
318 310 307 301 290 282 275 269 263 260 259 256 258 268 267 266 261 259 249 241 247 253 246 239 232 232 226 228 232 236 238 244 256 256 259 260 254 246 249 260 266 269 274
324 321 314 303 296 292 283 272 268 266 264 260 259 251 258 258 263 261 257 263 247 244 243 240 224 222 226 225 232 237 241 248 260 257 253 252 251 249 249 256 263 269 274
318 316 313 310 305 296 286 278 274 268 264 265 265 260 256 251 256 260 256 251 258 256 243 240 230 230 230 232 235 240 244 248 256 260 256 246 248 250 249 255 257 264 272
324 320 316 311 307 301 294 288 282 276 271 266 264 264 263 257 253 252 256 258 252 251 250 249 234 230 232 235 241 242 240 247 255 258 259 244 241 245 251 253 255 259 266
315 317 318 317 311 305 303 300 293 283 275 270 268 263 260 260 258 256 251 252 251 244 236 236 231 234 227 228 239 248 257 255 247 244 241 242 242 245 247 245 245 252 261
316 314 311 309 309 310 309 305 292 289 289 279 271 269 266 260 257 258 256 248 247 240 238 237 236 238 232 234 229 236 233 232 229 234 234 236 242 244 243 241 239 245 250
314 308 306 308 310 309 308 304 299 288 289 290 281 271 264 266 260 257 251 251 246 241 237 235 233 232 226 232 233 238 238 233 225 228 231 231 236 232 237 235 235 236 238
Height
1516 1518 1519 1521 1523 1525 1528 1530 1533 1536 1538 1540 1541 1542 1544 1545 1545 1546 1547 1547 1547 1547 1547 1548 1548 1549 1549 1549 1548 1548 1548 1547 1546 1546 1545 1544 1543 1543 1542 1541 1540 1539 1539
1513 1514 1516 1517 1520 1523 1525 1529 1532 1534 1536 1538 1539 1540 1541 1543 1543 1544 1544 1544 1545 1546 1546 1546 1546 1546 1547 1546 1546 1546 1546 1545 1544 1544 1544 1543 1542 1542 1541 1540 1539 1538 1537
1508 1510 1510 1514 1516 1520 1523 1526 1530 1532 1533 1534 1536 1537 1539 1540 1541 1541 1542 1543 1543 1544 1544 1543 1545 1544 1545 1545 1544 1544 1544 1543 1542 1542 1542 1542 1542 1541 1540 1539 1539 1538 1536
1502 1505 1507 1509 1510 1514 1521 1523 1527 1529 1530 1531 1532 1534 1535 1537 1538 1538 1539 1541 1541 1542 1542 1542 1542 1542 1543 1543 1542 1541 1541 1540 1540 1540 1540 1540 1539 1539 1539 1539 1538 1537 1536
1499 1499 1504 1504 1506 1512 1512 1519 1523 1525 1527 1527 1528 1530 1532 1533 1534 1535 1536 1537 1538 1540 1540 1539 1540 1538 1540 1540 1539 1538 1537 1537 1537 1537 1537 1537 1538 1537 1537 1536 1536 1535 1534
1496 1499 1501 1502 1501 1511 1513 1516 1519 1520 1523 1524 1526 1527 1528 1529 1531 1531 1533 1534 1535 1536 1538 1537 1536 1536 1535 1536 1536 1535 1534 1533 1534 1535 1535 1535 1535 1535 1535 1534 1533 1533 1532
1490 1493 1496 1499 1496 1502 1509 1510 1514 1514 1518 1519 1523 1523 1523 1525 1525 1526 1528 1529 1530 1531 1533 1533 1533 1535 1532 1532 1532 1532 1532 1531 1531 1531 1531 1531 1532 1532 1533 1532 1532 1531 1530
1488 1489 1490 1494 1494 1498 1502 1502 1506 1510 1512 1515 1517 1518 1520 1521 1519 1520 1523 1524 1526 1527 1529 1529 1530 1531 1531 1529 1529 1530 1529 1527 1527 1528 1527 1528 1529 1529 1530 1530 1529 1529 1528
1480 1483 1485 1487 1489 1491 1493 1496 1499 1500 1504 1508 1510 1514 1515 1513 1512 1514 1517 1520 1522 1522 1524 1525 1525 1526 1526 1526 1526 1526 1526 1524 1523 1524 1525 1525 1526 1526 1527 1527 1527 1527 1526
1473 1475 1477 1480 1482 1485 1486 1488 1492 1495 1498 1501 1504 1506 1508 1507 1506 1508 1510 1513 1516 1517 1518 1518 1520 1522 1522 1521 1521 1522 1522 1521 1521 1522 1522 1522 1524 1524 1524 1524 1524 1524 1523
1467 1466 1469 1469 1473 1478 1481 1483 1486 1490 1493 1496 1496 1499 1500 1502 1502 1502 1503 1504 1510 1511 1513 1512 1514 1515 1515 1517 1517 1518 1518 1517 1517 1518 1519 1520 1520 1520 1521 1520 1521 1521 1520
1462 1460 1461 1461 1464 1470 1474 1478 1481 1484 1487 1488 1490 1492 1493 1495 1497 1497 1499 1499 1502 1505 1506 1505 1507 1507 1507 1506 1510 1513 1513 1513 1513 1514 1515 1517 1517 1516 1517 1517 1517 1517 1516
1455 1453 1454 1454 1458 1462 1468 1471 1474 1477 1480 1481 1485 1487 1488 1490 1491 1494 1494 1495 1497 1495 1494 1497 1499 1500 1502 1501 1503 1506 1508 1507 1508 1510 1511 1512 1511 1513 1512 1512 1513 1511 1510
1448 1448 1448 1449 1452 1456 1460 1463 1467 1470 1472 1474 1476 1478 1480 1482 1486 1487 1487 1488 1488 1487 1486 1486 1491 1493 1496 1496 1498 1499 1501 1503 1505 1506 1506 1505 1508 1508 1508 1509 1509 1509 1508
1447 1444 1444 1445 1448 1449 1452 1454 1458 1462 1465 1468 1470 1470 1471 1474 1476 1477 1478 1479 1480 1478 1477 1478 1482 1485 1487 1490 1492 1495 1496 1498 1499 1500 1501 1501 1503 1503 1503 1503 1503 1503 1504
1444 1445 1443 1444 1447 1448 1448 1448 1451 1455 1458 1460 1461 1461 1463 1465 1467 1467 1467 1468 1469 1470 1469 1469 1472 1477 1479 1485 1487 1489 1491 1493 1495 1496 1496 1496 1496 1496 1498 1499 1499 1501 1501
1443 1443 1443 1444 1445 1445 1444 1445 1447 1449 1450 1453 1453 1452 1456 1457 1458 1460 1461 1459 1457 1461 1462 1464 1465 1470 1475 1479 1480 1484 1486 1488 1490 1491 1491 1491 1493 1494 1492 1493 1493 1495 1495
1443 1443 1442 1443 1443 1442 1441 1442 1442 1443 1443 1445 1447 1445 1447 1449 1451 1452 1452 1451 1452 1457 1458 1461 1462 1464 1468 1472 1475 1478 1482 1483 1484 1486 1487 1487 1487 1489 1489 1492 1490 1491 1492
1442 1442 1441 1441 1440 1440 1438 1439 1438 1437 1437 1439 1439 1440 1440 1442 1443 1444 1446 1447 1449 1452 1455 1457 1457 1459 1463 1467 1469 1472 1475 1477 1480 1481 1480 1481 1481 1483 1482 1484 1487 1488 1489
1441 1441 1438 1438 1438 1437 1434 1432 1431 1431 1432 1433 1431 1431 1433 1435 1436 1437 1439 1440 1442 1444 1446 1448 1446 1451 1454 1458 1462 1465 1467 1471 1473 1474 1474 1476 1476 1477 1478 1481 1481 1483 1483
1439 1436 1434 1434 1432 1430 1430 1429 1427 1425 1424 1425 1426 1423 1424 1427 1430 1431 1430 1431 1428 1433 1434 1437 1438 1442 1445 1450 1453 1456 1461 1465 1465 1466 1466 1468 1470 1473 1472 1475 1477 1479 1479
1438 1434 1433 1432 1429 1428 1428 1425 1420 1418 1417 1418 1417 1417 1418 1419 1421 1422 1423 1423 1425 1426 1426 1430 1431 1435 1439 1442 1447 1451 1455 1458 1460 1461 1460 1463 1465 1467 1468 1470 1471 1472 1474
1432 1430 1428 1428 1425 1424 1420 1415 1414 1412 1412 1410 1408 1409 1412 1411 1413 1414 1414 1415 1414 1418 1419 1418 1419 1425 1429 1436 1443 1447 1447 1449 1451 1457 1457 1459 1458 1461 1464 1465 1466 1467 1469
1430 1425 1423 1421 1420 1420 1416 1411 1408 1404 1402 1402 1402 1403 1402 1404 1405 1407 1404 1406 1408 1407 1410 1412 1416 1419 1424 1431 1433 1440 1442 1445 1445 1449 1452 1452 1454 1457 1457 1460 1461 1461 1463
1424 1423 1422 1419 1415 1412 1410 1407 1403 1399 1396 1395 1396 1396 1395 1396 1397 1399 1397 1397 1400 1401 1403 1408 1411 1413 1415 1420 1424 1432 1431 1436 1438 1440 1446 1447 1447 1450 1453 1456 1456 1456 1457
1419 1418 1415 1412 1409 1405 1403 1401 1397 1393 1391 1390 1389 1389 1389 1388 1389 1390 1390 1390 1393 1395 1396 1400 1403 1407 1409 1416 1421 1423 1424 1425 1429 1434 1436 1440 1442 1445 1450 1450 1452 1452 1453